Regional Weather Roundup
Issued by NWS

Home | Current Version | Previous Version | Text Only | Print | Product List | Glossary Off
Versions: 1 2 3 4 5 6 7 8 9 10 11 12 13 14 15 16 17 18 19 20 21 22 23 24 25 26 27 28 29 30 31 32 33 34 35 36 37 38 39 40 41 42 43 44 45 46 47 48 49 50

000
ASUS45 KABQ 240601
RWRNM
NEW MEXICO REGIONAL WEATHER ROUNDUP
NATIONAL WEATHER SERVICE ALBUQUERQUE NM
1200 AM MDT TUE MAY 24 2016

NOTE: "FAIR" MEANS FEW OR NO CLOUDS BELOW 12,000 FEET AGL WITH NO
       SIGNIFICANT WEATHER OR OBSTRUCTIONS TO VISION.

      THIS PRODUCT IS RELEASED AS TWO VERSIONS.  ONE VERSION NEAR
      THE TOP OF THE HOUR CONTAINING PRELIMINARY DATA FROM ALBUQUERQUE
      AND OTHER STATIONS.  A FINAL VERSION WITH ADDITIONAL DATA IS
      ISSUED ABOUT 10 MINUTES AFTER THE HOUR.

NMZ501-503-504-510>518-240700-
NORTHWEST PLATEAU/NORTHCENTRAL MOUNTAINS

CITY           SKY/WX    TMP DP  RH WIND       PRES   REMARKS
FARMINGTON     FAIR      50  16  25 N5        29.91R
6HR MIN TEMP:  50; 6HR MAX TEMP:  76;

SANTA FE       FAIR      53  22  29 NW5       29.97R
6HR MIN TEMP:  50; 6HR MAX TEMP:  76;

TAOS           FAIR      46  23  39 E8        30.03S

$$
NMZ402-403-502-505>509-240700-
WESTCENTRAL MOUNTAINS/SOUTHWEST MOUNTAINS

CITY           SKY/WX    TMP DP  RH WIND       PRES   REMARKS
GALLUP         FAIR      56  14  19 SW12      30.01R
6HR MIN TEMP:  56; 6HR MAX TEMP:  72;

GRANTS         FAIR      46  21  36 CALM      30.04S
SILVER CITY      N/A     57  19  23 NW5       30.02R

$$
NMZ407-409-411-412-240700-
SOUTHERN DESERTS

CITY           SKY/WX    TMP DP  RH WIND       PRES   REMARKS
LORDSBURG      FAIR      70  19  14 SW9       29.95R
DEMING         FAIR      68  14  12 W9        29.93R
6HR MIN TEMP:  68; 6HR MAX TEMP:  87;

HOLLOMAN AFB   FAIR      66  18  15 S6        29.88R
ALAMOGORDO     FAIR      66  19  16 SE5       29.90S
T OR C         FAIR      66  20  17 W8        29.92R
6HR MIN TEMP:  65; 6HR MAX TEMP:  86;


$$
NMZ519>523-240700-
CENTRAL VALLEYS/CENTRAL HIGHLANDS

CITY           SKY/WX    TMP DP  RH WIND       PRES   REMARKS
ALBUQUERQUE    FAIR      61  14  16 SE7       29.94R
6HR MIN TEMP:  61; 6HR MAX TEMP:  85;

CLINES CORNERS FAIR      51  15  23 W14       30.01R
6HR MIN TEMP:  50; 6HR MAX TEMP:  74;

BELEN          FAIR      58  17  19 SW8       29.94R
6HR MIN TEMP:  58; 6HR MAX TEMP:  85;

SOCORRO        NOT AVBL

$$
NMZ524>526-539-540-240700-
SOUTHCENTRAL MOUNTAINS

CITY           SKY/WX    TMP DP  RH WIND       PRES   REMARKS
RUIDOSO        NOT AVBL

$$
NMZ527>531-240700-
NORTHEAST HIGHLANDS/NORTHEAST PLAINS

CITY           SKY/WX    TMP DP  RH WIND       PRES   REMARKS
LAS VEGAS      FAIR      46  27  47 N7        29.98S
6HR MIN TEMP:  46; 6HR MAX TEMP:  74;

RATON          FAIR      53  27  36 NE5       29.93S
6HR MIN TEMP:  49; 6HR MAX TEMP:  76;

CLAYTON        FAIR      61  27  27 W9        29.85S
6HR MIN TEMP:  59; 6HR MAX TEMP:  83;


$$
NMZ532>537-240700-
EASTCENTRAL PLAINS

CITY           SKY/WX    TMP DP  RH WIND       PRES   REMARKS
TUCUMCARI      FAIR      60  35  39 CALM      29.81R
6HR MIN TEMP:  57; 6HR MAX TEMP:  89;

CANNON AFB     FAIR      58  38  47 SW8       29.87R
6HR MIN TEMP:  57; 6HR MAX TEMP:  87;

CLOVIS AIRPORT FAIR      63  36  36 W13       29.86R

$$
NMZ028-029-538-240700-
SOUTHEAST PLAINS

CITY           SKY/WX    TMP DP  RH WIND       PRES   REMARKS
ROSWELL        FAIR      67  27  22 W10       29.83R
6HR MIN TEMP:  65; 6HR MAX TEMP:  94;

ARTESIA        FAIR      70  21  16 W14       29.85R
CARLSBAD       FAIR      74  57  55 S9        29.84R
6HR MIN TEMP:  67; 6HR MAX TEMP:  94;

HOBBS          FAIR      72  55  56 S15       29.89R


$$




USA.gov is the U.S. government's official web portal to all federal, state and local government web resources and services.